Time,TemperatureF,DewpointF,PressureIn,WindDirection,WindDirectionDegrees,WindSpeedMPH,WindSpeedGustMPH,Humidity,HourlyPrecipIn,Conditions,Clouds,dailyrainin,SoftwareType,DateUTC
2013-05-07 00:01:00,54.1,50.0,30.03,North,11,0.0,0.0,86,0.01,RA,SKC,0.00,WeatherDisplay:10.37,2013-05-07 05:01:00,
2013-05-07 00:06:00,53.7,50.5,30.03,North,11,0.0,0.0,89,0.01,RA,SKC,0.00,WeatherDisplay:10.37,2013-05-07 05:06:00,
2013-05-07 00:11:00,53.8,50.6,30.03,NNE,19,0.0,0.0,89,0.00,CLR,SKC,0.00,WeatherDisplay:10.37,2013-05-07 05:11:00,
2013-05-07 00:16:00,53.6,50.4,30.03,NNE,12,0.0,0.0,89,0.00,CLR,SKC,0.00,WeatherDisplay:10.37,2013-05-07 05:16:00,
2013-05-07 00:21:00,53.3,49.8,30.03,NNE,12,0.0,0.0,88,0.00,CLR,SKC,0.00,WeatherDisplay:10.37,2013-05-07 05:21:00,
2013-05-07 00:26:00,52.9,49.7,30.03,NNE,12,0.0,0.0,89,0.00,CLR,SKC,0.00,WeatherDisplay:10.37,2013-05-07 05:26:00,
2013-05-07 00:31:00,52.8,50.2,30.03,NNE,12,0.0,0.0,91,0.00,CLR,SKC,0.00,WeatherDisplay:10.37,2013-05-07 05:31:00,
2013-05-07 00:36:00,53.2,50.6,30.03,NE,56,0.0,0.0,91,0.00,CLR,SKC,0.00,WeatherDisplay:10.37,2013-05-07 05:36:00,
2013-05-07 00:41:00,53.6,50.7,30.03,NE,44,0.0,0.0,90,0.00,CLR,SKC,0.00,WeatherDisplay:10.37,2013-05-07 05:41:00,
2013-05-07 00:46:00,53.6,50.7,30.03,NNE,32,0.0,0.0,90,0.00,CLR,SKC,0.00,WeatherDisplay:10.37,2013-05-07 05:46:00,
2013-05-07 00:51:00,53.6,50.7,30.03,NE,39,0.0,0.0,90,0.00,CLR,SKC,0.00,WeatherDisplay:10.37,2013-05-07 05:51:00,
2013-05-07 00:56:00,53.4,50.2,30.03,NNE,29,0.0,0.0,89,0.00,CLR,SKC,0.00,WeatherDisplay:10.37,2013-05-07 05:56:00,
2013-05-07 01:01:00,53.3,50.4,30.03,NE,37,0.0,0.0,90,0.00,CLR,SKC,0.00,WeatherDisplay:10.37,2013-05-07 06:01:00,
2013-05-07 01:06:00,53.1,50.2,30.03,NE,42,0.0,0.0,90,0.00,CLR,SKC,0.00,WeatherDisplay:10.37,2013-05-07 06:06:00,
2013-05-07 01:11:00,53.2,50.3,30.03,NE,49,0.0,0.0,90,0.00,CLR,SKC,0.00,WeatherDisplay:10.37,2013-05-07 06:11:00,
2013-05-07 01:16:00,53.3,50.4,30.03,NE,51,0.0,0.0,90,0.00,CLR,SKC,0.00,WeatherDisplay:10.37,2013-05-07 06:16:00,
2013-05-07 01:22:00,53.4,50.5,30.03,NE,47,0.0,0.0,90,0.00,CLR,SKC,0.00,WeatherDisplay:10.37,2013-05-07 06:22:00,
2013-05-07 01:26:00,53.2,50.3,30.03,NE,48,0.0,0.0,90,0.00,CLR,SKC,0.00,WeatherDisplay:10.37,2013-05-07 06:26:00,
2013-05-07 01:32:00,52.7,49.8,30.03,NE,48,0.0,0.0,90,0.00,CLR,SKC,0.00,WeatherDisplay:10.37,2013-05-07 06:32:00,
2013-05-07 01:37:00,52.3,49.8,30.03,NE,48,0.0,0.0,91,0.00,CLR,SKC,0.00,WeatherDisplay:10.37,2013-05-07 06:37:00,
2013-05-07 01:42:00,52.0,49.5,30.03,NE,47,0.0,0.0,91,0.00,CLR,SKC,0.00,WeatherDisplay:10.37,2013-05-07 06:42:00,
2013-05-07 01:47:00,51.6,49.4,30.03,NE,48,0.0,0.0,92,0.00,CLR,SKC,0.00,WeatherDisplay:10.37,2013-05-07 06:47:00,
2013-05-07 01:52:00,51.3,49.1,30.03,NE,47,0.0,0.0,92,0.00,CLR,SKC,0.00,WeatherDisplay:10.37,2013-05-07 06:52:00,
2013-05-07 01:57:00,50.9,48.7,30.03,NE,47,0.0,0.0,92,0.00,CLR,SKC,0.00,WeatherDisplay:10.37,2013-05-07 06:57:00,
2013-05-07 02:02:00,50.3,48.1,30.03,NE,47,0.0,0.0,92,0.00,CLR,SKC,0.00,WeatherDisplay:10.37,2013-05-07 07:02:00,
2013-05-07 02:07:00,49.8,47.9,30.03,NE,48,0.0,0.0,93,0.00,CLR,SKC,0.00,WeatherDisplay:10.37,2013-05-07 07:07:00,
2013-05-07 02:12:00,49.5,47.6,30.02,NE,48,0.0,0.0,93,0.00,CLR,SKC,0.00,WeatherDisplay:10.37,2013-05-07 07:12:00,
2013-05-07 02:17:00,49.0,47.1,30.02,NE,48,0.0,0.0,93,0.00,CLR,SKC,0.00,WeatherDisplay:10.37,2013-05-07 07:17:00,
2013-05-07 02:22:00,48.7,47.1,30.02,NE,47,0.0,0.0,94,0.00,CLR,SKC,0.00,WeatherDisplay:10.37,2013-05-07 07:22:00,
2013-05-07 02:27:00,48.8,47.2,30.02,NE,47,0.0,0.0,94,0.00,CLR,SKC,0.00,WeatherDisplay:10.37,2013-05-07 07:27:00,
2013-05-07 02:32:00,49.8,48.7,30.02,NE,48,0.0,0.0,96,0.00,CLR,SKC,0.00,WeatherDisplay:10.37,2013-05-07 07:32:00,
2013-05-07 02:37:00,49.6,48.2,30.02,NE,39,0.0,0.0,95,0.00,CLR,SKC,0.00,WeatherDisplay:10.37,2013-05-07 07:37:00,
2013-05-07 02:42:00,49.5,48.1,30.01,NNE,31,0.0,0.0,95,0.00,CLR,SKC,0.00,WeatherDisplay:10.37,2013-05-07 07:42:00,
2013-05-07 02:47:00,49.2,47.5,30.01,NNE,30,0.0,0.0,94,0.00,CLR,SKC,0.00,WeatherDisplay:10.37,2013-05-07 07:47:00,
2013-05-07 02:52:00,48.8,47.2,30.01,NNE,30,0.0,0.0,94,0.00,CLR,SKC,0.00,WeatherDisplay:10.37,2013-05-07 07:52:00,
2013-05-07 02:57:00,48.6,47.0,30.01,NNE,31,0.0,0.0,94,0.00,CLR,SKC,0.00,WeatherDisplay:10.37,2013-05-07 07:57:00,
2013-05-07 03:02:00,48.2,46.6,30.01,NNE,31,0.0,0.0,94,0.00,CLR,SKC,0.00,WeatherDisplay:10.37,2013-05-07 08:02:00,
2013-05-07 03:07:00,47.6,46.0,30.01,NNE,30,0.0,0.0,94,0.00,CLR,SKC,0.00,WeatherDisplay:10.37,2013-05-07 08:07:00,
2013-05-07 03:12:00,47.2,45.6,30.01,NNE,30,0.0,0.0,94,0.00,CLR,SKC,0.00,WeatherDisplay:10.37,2013-05-07 08:12:00,
2013-05-07 03:17:00,47.0,45.4,30.01,NNE,30,0.0,0.0,94,0.00,CLR,SKC,0.00,WeatherDisplay:10.37,2013-05-07 08:17:00,
2013-05-07 03:22:00,47.0,45.6,30.01,NNE,31,0.0,0.0,95,0.00,CLR,SKC,0.00,WeatherDisplay:10.37,2013-05-07 08:22:00,
2013-05-07 03:27:00,46.6,45.2,30.01,NNE,30,0.0,0.0,95,0.00,CLR,SKC,0.00,WeatherDisplay:10.37,2013-05-07 08:27:00,
2013-05-07 03:32:00,46.4,45.0,30.01,NNE,31,0.0,0.0,95,0.00,CLR,SKC,0.00,WeatherDisplay:10.37,2013-05-07 08:32:00,
2013-05-07 03:37:00,46.6,45.2,30.01,NNE,31,0.0,0.0,95,0.00,CLR,SKC,0.00,WeatherDisplay:10.37,2013-05-07 08:37:00,
2013-05-07 03:42:00,46.7,45.6,30.01,NNE,30,0.0,0.0,96,0.00,CLR,SKC,0.00,WeatherDisplay:10.37,2013-05-07 08:42:00,
2013-05-07 03:47:00,47.3,46.2,30.01,NNE,30,0.0,0.0,96,0.00,CLR,SKC,0.00,WeatherDisplay:10.37,2013-05-07 08:47:00,
2013-05-07 03:52:00,48.1,47.0,30.01,NNE,31,0.0,0.0,96,0.00,CLR,SKC,0.00,WeatherDisplay:10.37,2013-05-07 08:52:00,
2013-05-07 03:57:00,48.4,47.3,30.01,NNE,31,0.0,0.0,96,0.00,CLR,SKC,0.00,WeatherDisplay:10.37,2013-05-07 08:57:00,
2013-05-07 04:02:00,47.8,46.7,30.01,NNE,31,0.0,0.0,96,0.00,CLR,SKC,0.00,WeatherDisplay:10.37,2013-05-07 09:02:00,
2013-05-07 04:07:00,47.4,46.3,30.01,NNE,31,0.0,0.0,96,0.00,CLR,SKC,0.00,WeatherDisplay:10.37,2013-05-07 09:07:00,
2013-05-07 04:12:00,46.6,45.2,30.01,NNE,31,0.0,0.0,95,0.00,CLR,SKC,0.00,WeatherDisplay:10.37,2013-05-07 09:12:00,
2013-05-07 04:17:00,46.2,44.8,30.01,NNE,31,0.0,0.0,95,0.00,CLR,SKC,0.00,WeatherDisplay:10.37,2013-05-07 09:17:00,
2013-05-07 04:22:00,46.5,45.4,30.01,NNE,30,0.0,0.0,96,0.00,CLR,SKC,0.00,WeatherDisplay:10.37,2013-05-07 09:22:00,
2013-05-07 04:27:00,46.3,45.2,30.01,NNE,31,0.0,0.0,96,0.00,CLR,SKC,0.00,WeatherDisplay:10.37,2013-05-07 09:27:00,
2013-05-07 04:32:00,46.0,44.6,30.01,NNE,31,0.0,0.0,95,0.00,CLR,SKC,0.00,WeatherDisplay:10.37,2013-05-07 09:32:00,
2013-05-07 04:37:00,45.8,44.7,30.01,NNE,31,0.0,0.0,96,0.00,CLR,SKC,0.00,WeatherDisplay:10.37,2013-05-07 09:37:00,
2013-05-07 04:42:00,46.0,44.9,30.01,NNE,31,0.0,0.0,96,0.00,CLR,SKC,0.00,WeatherDisplay:10.37,2013-05-07 09:42:00,
2013-05-07 04:47:00,45.6,44.5,30.01,NNE,30,0.0,0.0,96,0.00,CLR,SKC,0.00,WeatherDisplay:10.37,2013-05-07 09:47:00,
2013-05-07 04:52:00,45.4,44.3,30.01,NNE,31,0.0,0.0,96,0.00,CLR,SKC,0.00,WeatherDisplay:10.37,2013-05-07 09:52:00,
2013-05-07 04:57:00,45.7,44.6,30.01,NNE,30,0.0,0.0,96,0.00,CLR,SKC,0.00,WeatherDisplay:10.37,2013-05-07 09:57:00,
2013-05-07 05:02:00,45.8,44.7,30.01,NNE,31,0.0,0.0,96,0.00,CLR,SKC,0.00,WeatherDisplay:10.37,2013-05-07 10:02:00,
2013-05-07 05:07:00,45.5,44.4,30.01,NNE,30,0.0,0.0,96,0.00,CLR,SKC,0.00,WeatherDisplay:10.37,2013-05-07 10:07:00,
2013-05-07 05:12:00,45.4,44.3,30.01,NNE,31,0.0,0.0,96,0.00,CLR,SKC,0.00,WeatherDisplay:10.37,2013-05-07 10:12:00,
2013-05-07 05:17:00,45.0,43.9,30.01,NNE,30,0.0,0.0,96,0.00,CLR,SKC,0.00,WeatherDisplay:10.37,2013-05-07 10:17:00,
2013-05-07 05:22:00,44.7,43.6,30.01,NNE,31,0.0,0.0,96,0.00,CLR,SKC,0.00,WeatherDisplay:10.37,2013-05-07 10:22:00,
2013-05-07 05:27:00,44.5,43.4,30.01,NNE,30,0.0,0.0,96,0.00,CLR,SKC,0.00,WeatherDisplay:10.37,2013-05-07 10:27:00,
2013-05-07 05:32:00,44.2,43.1,30.01,NNE,31,0.0,0.0,96,0.00,CLR,SKC,0.00,WeatherDisplay:10.37,2013-05-07 10:32:00,
2013-05-07 05:37:00,43.7,42.4,30.02,NNE,30,0.0,0.0,95,0.00,CLR,SKC,0.00,WeatherDisplay:10.37,2013-05-07 10:37:00,
2013-05-07 05:42:00,43.4,42.3,30.02,NNE,30,0.0,0.0,96,0.00,CLR,SKC,0.00,WeatherDisplay:10.37,2013-05-07 10:42:00,
2013-05-07 05:47:00,43.4,42.3,30.02,NNE,31,0.0,0.0,96,0.00,CLR,SKC,0.00,WeatherDisplay:10.37,2013-05-07 10:47:00,
2013-05-07 05:52:00,43.1,41.8,30.02,NNE,31,0.0,0.0,95,0.00,CLR,SKC,0.00,WeatherDisplay:10.37,2013-05-07 10:52:00,
2013-05-07 05:57:00,42.9,41.8,30.02,NNE,31,0.0,0.0,96,0.00,CLR,SKC,0.00,WeatherDisplay:10.37,2013-05-07 10:57:00,
2013-05-07 06:02:00,42.5,41.2,30.02,NNE,31,0.0,0.0,95,0.00,CLR,SKC,0.00,WeatherDisplay:10.37,2013-05-07 11:02:00,
2013-05-07 06:07:00,42.3,41.2,30.02,NNE,31,0.0,0.0,96,0.00,CLR,SKC,0.00,WeatherDisplay:10.37,2013-05-07 11:07:00,
2013-05-07 06:12:00,42.2,41.1,30.02,NNE,30,0.0,0.0,96,0.00,CLR,SKC,0.00,WeatherDisplay:10.37,2013-05-07 11:12:00,
2013-05-07 06:17:00,42.0,40.9,30.02,NNE,30,0.0,0.0,96,0.00,CLR,SKC,0.00,WeatherDisplay:10.37,2013-05-07 11:17:00,
2013-05-07 06:22:00,42.1,41.0,30.03,NNE,31,0.0,0.0,96,0.00,CLR,SKC,0.00,WeatherDisplay:10.37,2013-05-07 11:22:00,
2013-05-07 06:28:00,42.3,41.2,30.02,NNE,31,0.0,0.0,96,0.00,CLR,SKC,0.00,WeatherDisplay:10.37,2013-05-07 11:28:00,
2013-05-07 06:33:00,42.2,41.1,30.03,NNE,31,0.0,0.0,96,0.00,CLR,SKC,0.00,WeatherDisplay:10.37,2013-05-07 11:33:00,
2013-05-07 06:38:00,41.9,40.8,30.03,NNE,31,0.0,0.0,96,0.00,CLR,SKC,0.00,WeatherDisplay:10.37,2013-05-07 11:38:00,
2013-05-07 06:43:00,41.8,40.7,30.03,NNE,30,0.0,0.0,96,0.00,CLR,SKC,0.00,WeatherDisplay:10.37,2013-05-07 11:43:00,
2013-05-07 06:48:00,42.2,41.1,30.03,NNE,31,0.0,0.0,96,0.00,CLR,SKC,0.00,WeatherDisplay:10.37,2013-05-07 11:48:00,
2013-05-07 06:53:00,42.4,41.3,30.03,NNE,31,0.0,0.0,96,0.00,CLR,SKC,0.00,WeatherDisplay:10.37,2013-05-07 11:53:00,
2013-05-07 06:58:00,42.6,41.5,30.03,NNE,31,0.0,0.0,96,0.00,CLR,SKC,0.00,WeatherDisplay:10.37,2013-05-07 11:58:00,
2013-05-07 07:03:00,42.8,41.7,30.03,NNE,30,0.0,0.0,96,0.00,CLR,SKC,0.00,WeatherDisplay:10.37,2013-05-07 12:03:00,
2013-05-07 07:08:00,43.2,42.1,30.03,NNE,31,0.0,0.0,96,0.00,CLR,SKC,0.00,WeatherDisplay:10.37,2013-05-07 12:08:00,
2013-05-07 07:13:00,43.7,42.6,30.04,NNE,31,0.0,0.0,96,0.00,CLR,SKC,0.00,WeatherDisplay:10.37,2013-05-07 12:13:00,
2013-05-07 07:18:00,43.7,42.6,30.04,NNE,31,0.0,0.0,96,0.00,CLR,SKC,0.00,WeatherDisplay:10.37,2013-05-07 12:18:00,
2013-05-07 07:23:00,43.7,42.6,30.04,NNE,31,0.0,0.0,96,0.00,CLR,SKC,0.00,WeatherDisplay:10.37,2013-05-07 12:23:00,
2013-05-07 07:28:00,44.1,43.0,30.04,NNE,30,0.0,0.0,96,0.00,CLR,SKC,0.00,WeatherDisplay:10.37,2013-05-07 12:28:00,
2013-05-07 07:33:00,44.6,43.5,30.04,NNE,31,0.0,0.0,96,0.00,CLR,SKC,0.00,WeatherDisplay:10.37,2013-05-07 12:33:00,
2013-05-07 07:38:00,45.2,44.1,30.04,NNE,31,0.0,0.0,96,0.00,CLR,SKC,0.00,WeatherDisplay:10.37,2013-05-07 12:38:00,
2013-05-07 07:43:00,45.4,44.3,30.05,NNE,31,0.0,0.0,96,0.00,CLR,SKC,0.00,WeatherDisplay:10.37,2013-05-07 12:43:00,
2013-05-07 07:48:00,45.5,44.4,30.04,NNE,31,0.0,0.0,96,0.00,CLR,SKC,0.00,WeatherDisplay:10.37,2013-05-07 12:48:00,
2013-05-07 07:53:00,45.9,44.8,30.05,NNE,31,0.0,0.0,96,0.00,CLR,SKC,0.00,WeatherDisplay:10.37,2013-05-07 12:53:00,
2013-05-07 07:58:00,46.4,45.3,30.05,NNE,30,0.0,0.0,96,0.00,CLR,SKC,0.00,WeatherDisplay:10.37,2013-05-07 12:58:00,
2013-05-07 08:03:00,47.2,46.1,30.05,NNE,31,0.0,0.0,96,0.00,CLR,SKC,0.00,WeatherDisplay:10.37,2013-05-07 13:03:00,
2013-05-07 08:08:00,47.7,46.6,30.05,NNE,30,0.0,0.0,96,0.00,CLR,SKC,0.00,WeatherDisplay:10.37,2013-05-07 13:08:00,
2013-05-07 08:13:00,48.9,47.8,30.04,NNE,31,0.0,0.0,96,0.00,CLR,SKC,0.00,WeatherDisplay:10.37,2013-05-07 13:13:00,
2013-05-07 08:18:00,50.9,50.1,30.04,NNE,31,0.0,0.0,97,0.00,CLR,SKC,0.00,WeatherDisplay:10.37,2013-05-07 13:18:00,
2013-05-07 08:23:00,52.0,50.9,30.05,NNE,31,0.0,0.0,96,0.00,CLR,SKC,0.00,WeatherDisplay:10.37,2013-05-07 13:23:00,
2013-05-07 08:28:00,52.7,51.3,30.05,NNE,31,0.0,0.0,95,0.00,CLR,SKC,0.00,WeatherDisplay:10.37,2013-05-07 13:28:00,
2013-05-07 08:33:00,53.8,51.5,30.05,NNE,23,0.0,0.0,92,0.00,CLR,SKC,0.00,WeatherDisplay:10.37,2013-05-07 13:33:00,
2013-05-07 08:38:00,54.6,52.0,30.05,NNE,22,0.0,0.0,91,0.00,CLR,SKC,0.00,WeatherDisplay:10.37,2013-05-07 13:38:00,
2013-05-07 08:43:00,55.5,52.6,30.04,NNE,22,0.0,0.0,90,0.00,CLR,SKC,0.00,WeatherDisplay:10.37,2013-05-07 13:43:00,
2013-05-07 08:48:00,57.0,53.2,30.05,NNE,23,0.0,0.0,87,0.00,CLR,SKC,0.00,WeatherDisplay:10.37,2013-05-07 13:48:00,
2013-05-07 08:53:00,58.0,53.5,30.04,NNE,23,0.0,0.0,85,0.00,CLR,SKC,0.00,WeatherDisplay:10.37,2013-05-07 13:53:00,
2013-05-07 08:58:00,58.2,53.7,30.04,NNE,22,0.0,0.0,85,0.00,CLR,SKC,0.00,WeatherDisplay:10.37,2013-05-07 13:58:00,
2013-05-07 09:03:00,58.9,53.7,30.04,NNE,13,0.0,0.0,83,0.01,RA,SKC,0.01,WeatherDisplay:10.37,2013-05-07 14:03:00,
2013-05-07 09:08:00,58.6,53.5,30.04,North,354,0.0,0.0,83,0.01,RA,SKC,0.01,WeatherDisplay:10.37,2013-05-07 14:08:00,
2013-05-07 09:13:00,58.5,53.7,30.04,North,355,0.0,0.0,84,0.01,,SKC,0.01,WeatherDisplay:10.37,2013-05-07 14:13:00,
2013-05-07 09:18:00,58.9,53.7,30.04,NNE,23,0.0,0.0,83,0.01,CLR,SKC,0.01,WeatherDisplay:10.37,2013-05-07 14:18:00,
2013-05-07 09:23:00,59.7,54.2,30.04,ENE,67,1.2,1.2,82,0.01,CLR,SKC,0.01,WeatherDisplay:10.37,2013-05-07 14:23:00,
2013-05-07 09:28:00,60.6,54.7,30.04,ENE,57,0.0,0.0,81,0.01,CLR,SKC,0.01,WeatherDisplay:10.37,2013-05-07 14:28:00,
2013-05-07 09:33:00,61.2,54.6,30.04,NE,55,0.0,0.0,79,0.01,CLR,SKC,0.01,WeatherDisplay:10.37,2013-05-07 14:33:00,
2013-05-07 09:38:00,61.4,54.1,30.04,ENE,63,0.0,0.0,77,0.01,CLR,SKC,0.01,WeatherDisplay:10.37,2013-05-07 14:38:00,
2013-05-07 09:43:00,61.7,54.8,30.04,NNE,18,2.3,2.3,78,0.01,CLR,SKC,0.01,WeatherDisplay:10.37,2013-05-07 14:43:00,
2013-05-07 09:48:00,62.0,55.1,30.04,ESE,115,3.2,3.2,78,0.01,CLR,SKC,0.01,WeatherDisplay:10.37,2013-05-07 14:48:00,
2013-05-07 09:53:00,62.6,54.9,30.04,North,357,1.1,1.1,76,0.01,CLR,SKC,0.01,WeatherDisplay:10.37,2013-05-07 14:53:00,
2013-05-07 09:58:00,63.0,54.9,30.04,NNE,28,4.6,4.6,75,0.01,CLR,SKC,0.01,WeatherDisplay:10.37,2013-05-07 14:58:00,
2013-05-07 10:03:00,62.6,55.6,30.04,ENE,59,2.3,2.3,78,0.02,RA,SKC,0.03,WeatherDisplay:10.37,2013-05-07 15:03:00,
2013-05-07 10:08:00,63.2,54.4,30.04,ENE,60,3.5,3.5,73,0.04,RA,SKC,0.05,WeatherDisplay:10.37,2013-05-07 15:08:00,
2013-05-07 10:13:00,64.0,54.8,30.03,ENE,75,0.0,0.0,72,0.08,RA,SKC,0.09,WeatherDisplay:10.37,2013-05-07 15:13:00,
2013-05-07 10:18:00,64.1,53.7,30.03,NNE,13,0.0,0.0,69,0.08,RA,SKC,0.09,WeatherDisplay:10.37,2013-05-07 15:18:00,
2013-05-07 10:23:00,64.4,54.0,30.03,ESE,122,3.5,3.5,69,0.11,RA,SKC,0.12,WeatherDisplay:10.37,2013-05-07 15:23:00,
2013-05-07 10:28:00,65.3,54.1,30.03,ENE,62,5.3,5.3,67,0.12,RA,SKC,0.13,WeatherDisplay:10.37,2013-05-07 15:28:00,
2013-05-07 10:33:00,65.3,53.6,30.03,East,82,4.6,4.6,66,0.12,,SKC,0.13,WeatherDisplay:10.37,2013-05-07 15:33:00,
2013-05-07 10:38:00,65.6,54.3,30.03,SE,131,4.6,4.6,67,0.12,CLR,SKC,0.13,WeatherDisplay:10.37,2013-05-07 15:38:00,
2013-05-07 10:43:00,65.7,53.2,30.03,ENE,59,4.2,4.2,64,0.12,CLR,SKC,0.13,WeatherDisplay:10.37,2013-05-07 15:43:00,
2013-05-07 10:48:00,65.8,54.1,30.03,SE,125,5.8,5.8,66,0.12,CLR,SKC,0.13,WeatherDisplay:10.37,2013-05-07 15:48:00,
2013-05-07 10:53:00,66.2,54.1,30.03,ESE,122,5.8,5.8,65,0.12,CLR,SKC,0.13,WeatherDisplay:10.37,2013-05-07 15:53:00,
2013-05-07 10:58:00,66.4,53.0,30.03,NE,35,6.9,6.9,62,0.12,CLR,SKC,0.13,WeatherDisplay:10.37,2013-05-07 15:58:00,
2013-05-07 11:03:00,66.7,53.3,30.02,ENE,61,5.8,5.8,62,0.14,RA,SKC,0.18,WeatherDisplay:10.37,2013-05-07 16:03:00,
2013-05-07 11:08:00,66.8,53.8,30.02,ENE,72,4.6,4.6,63,0.13,RA,SKC,0.20,WeatherDisplay:10.37,2013-05-07 16:08:00,
2013-05-07 11:13:00,66.6,54.0,30.02,SSE,148,6.9,6.9,64,0.13,RA,SKC,0.21,WeatherDisplay:10.37,2013-05-07 16:13:00,
2013-05-07 11:18:00,66.9,54.3,30.02,ENE,63,4.6,4.6,64,0.12,RA,SKC,0.21,WeatherDisplay:10.37,2013-05-07 16:18:00,
2013-05-07 11:23:00,67.2,54.2,30.02,North,2,3.5,3.5,63,0.08,CLR,SKC,0.21,WeatherDisplay:10.37,2013-05-07 16:23:00,
2013-05-07 11:28:00,67.5,55.3,30.02,East,96,6.9,6.9,65,0.08,CLR,SKC,0.21,WeatherDisplay:10.37,2013-05-07 16:28:00,
2013-05-07 11:33:00,67.9,54.8,30.02,SE,143,3.5,3.5,63,0.08,CLR,SKC,0.21,WeatherDisplay:10.37,2013-05-07 16:33:00,
2013-05-07 11:38:00,68.1,56.7,30.01,NE,52,10.6,10.6,67,0.08,CLR,SKC,0.21,WeatherDisplay:10.37,2013-05-07 16:38:00,
2013-05-07 11:43:00,68.3,54.8,30.01,ESE,121,4.6,4.6,62,0.08,CLR,SKC,0.21,WeatherDisplay:10.37,2013-05-07 16:43:00,
2013-05-07 11:48:00,68.7,56.0,30.01,ENE,58,9.5,9.5,64,0.08,CLR,SKC,0.21,WeatherDisplay:10.37,2013-05-07 16:48:00,
2013-05-07 11:53:00,68.8,54.8,30.01,ENE,77,5.3,5.3,61,0.08,CLR,SKC,0.21,WeatherDisplay:10.37,2013-05-07 16:53:00,
2013-05-07 11:58:00,68.8,55.7,30.01,ESE,122,2.3,2.3,63,0.07,CLR,SKC,0.21,WeatherDisplay:10.37,2013-05-07 16:58:00,
2013-05-07 12:03:00,69.9,54.9,30.01,SE,131,8.5,8.5,59,0.04,CLR,SKC,0.21,WeatherDisplay:10.37,2013-05-07 17:03:00,
2013-05-07 12:08:00,70.1,54.6,30.01,SE,124,6.9,6.9,58,0.02,CLR,SKC,0.21,WeatherDisplay:10.37,2013-05-07 17:08:00,
2013-05-07 12:13:00,70.4,53.0,30.01,SE,128,8.5,8.5,54,0.00,CLR,SKC,0.21,WeatherDisplay:10.37,2013-05-07 17:13:00,
2013-05-07 12:18:00,70.5,53.1,30.01,WSW,257,8.1,8.1,54,0.00,CLR,SKC,0.21,WeatherDisplay:10.37,2013-05-07 17:18:00,
2013-05-07 12:23:00,70.9,53.4,30.01,ESE,106,9.5,9.5,54,0.00,CLR,SKC,0.21,WeatherDisplay:10.37,2013-05-07 17:23:00,
2013-05-07 12:28:00,70.3,53.4,30.00,ESE,106,5.8,5.8,55,0.00,CLR,SKC,0.21,WeatherDisplay:10.37,2013-05-07 17:28:00,
2013-05-07 12:33:00,70.4,53.0,30.00,SE,142,6.9,6.9,54,0.02,RA,SKC,0.24,WeatherDisplay:10.37,2013-05-07 17:33:00,
2013-05-07 12:38:00,70.7,53.7,30.00,East,99,3.5,3.5,55,0.03,RA,SKC,0.24,WeatherDisplay:10.37,2013-05-07 17:38:00,
2013-05-07 12:44:00,70.8,52.8,30.00,East,95,6.9,6.9,53,0.03,RA,SKC,0.24,WeatherDisplay:10.37,2013-05-07 17:44:00,
2013-05-07 12:49:00,70.9,52.9,29.99,SE,124,3.5,3.5,53,0.03,CLR,SKC,0.24,WeatherDisplay:10.37,2013-05-07 17:49:00,
2013-05-07 12:54:00,71.6,53.6,29.99,ENE,60,8.1,8.1,53,0.07,RA,SKC,0.27,WeatherDisplay:10.37,2013-05-07 17:54:00,
2013-05-07 12:59:00,71.7,53.1,29.99,NE,56,7.4,7.4,52,0.08,RA,SKC,0.29,WeatherDisplay:10.37,2013-05-07 17:59:00,
2013-05-07 13:04:00,71.8,52.2,29.99,ENE,58,8.1,8.1,50,0.10,RA,SKC,0.31,WeatherDisplay:10.37,2013-05-07 18:04:00,
2013-05-07 13:09:00,70.8,52.3,29.99,ENE,58,5.8,5.8,52,0.10,RA,SKC,0.31,WeatherDisplay:10.37,2013-05-07 18:09:00,
2013-05-07 13:14:00,70.6,52.6,29.99,ENE,76,8.5,8.5,53,0.10,CLR,SKC,0.31,WeatherDisplay:10.37,2013-05-07 18:14:00,
2013-05-07 13:19:00,71.1,53.1,29.98,South,184,9.5,9.5,53,0.10,CLR,SKC,0.31,WeatherDisplay:10.37,2013-05-07 18:19:00,
2013-05-07 13:24:00,71.4,53.4,29.98,East,101,7.4,7.4,53,0.10,CLR,SKC,0.31,WeatherDisplay:10.37,2013-05-07 18:24:00,
2013-05-07 13:29:00,71.7,52.6,29.98,ESE,115,8.5,8.5,51,0.10,CLR,SKC,0.31,WeatherDisplay:10.37,2013-05-07 18:29:00,
2013-05-07 13:34:00,72.2,54.1,29.98,East,82,6.4,6.4,53,0.08,CLR,SKC,0.31,WeatherDisplay:10.37,2013-05-07 18:34:00,
2013-05-07 13:39:00,72.3,52.6,29.98,East,101,11.5,11.5,50,0.07,CLR,SKC,0.31,WeatherDisplay:10.37,2013-05-07 18:39:00,
2013-05-07 13:44:00,72.4,53.2,29.98,ESE,109,7.4,7.4,51,0.10,RA,SKC,0.34,WeatherDisplay:10.37,2013-05-07 18:44:00,
2013-05-07 13:49:00,72.3,52.6,29.98,East,91,5.8,5.8,50,0.14,RA,SKC,0.40,WeatherDisplay:10.37,2013-05-07 18:49:00,
2013-05-07 13:54:00,72.2,53.6,29.98,ESE,120,15.0,15.0,52,0.13,RA,SKC,0.41,WeatherDisplay:10.37,2013-05-07 18:54:00,
2013-05-07 13:59:00,72.4,53.2,29.97,ESE,114,7.4,7.4,51,0.14,RA,SKC,0.43,WeatherDisplay:10.37,2013-05-07 18:59:00,
2013-05-07 14:04:00,71.9,52.8,29.97,ENE,60,3.5,3.5,51,0.12,RA,SKC,0.43,WeatherDisplay:10.37,2013-05-07 19:04:00,
2013-05-07 14:09:00,71.6,53.0,29.97,SE,128,8.1,8.1,52,0.13,RA,SKC,0.44,WeatherDisplay:10.37,2013-05-07 19:09:00,
2013-05-07 14:14:00,71.2,53.2,29.97,ESE,110,7.4,7.4,53,0.13,RA,SKC,0.44,WeatherDisplay:10.37,2013-05-07 19:14:00,
2013-05-07 14:19:00,71.6,54.1,29.97,ENE,68,6.9,6.9,54,0.13,CLR,SKC,0.44,WeatherDisplay:10.37,2013-05-07 19:19:00,
2013-05-07 14:24:00,71.7,52.6,29.97,ENE,64,6.9,6.9,51,0.13,CLR,SKC,0.44,WeatherDisplay:10.37,2013-05-07 19:24:00,
2013-05-07 14:29:00,72.1,53.0,29.96,NE,50,10.4,10.4,51,0.13,CLR,SKC,0.44,WeatherDisplay:10.37,2013-05-07 19:29:00,
2013-05-07 14:34:00,72.5,52.8,29.96,ENE,75,7.4,7.4,50,0.13,CLR,SKC,0.44,WeatherDisplay:10.37,2013-05-07 19:34:00,
2013-05-07 14:39:00,73.3,54.1,29.96,ENE,72,13.8,13.8,51,0.13,CLR,SKC,0.44,WeatherDisplay:10.37,2013-05-07 19:39:00,
2013-05-07 14:44:00,72.7,51.3,29.96,SE,141,4.6,4.6,47,0.10,CLR,SKC,0.44,WeatherDisplay:10.37,2013-05-07 19:44:00,
2013-05-07 14:49:00,72.1,53.0,29.96,ENE,72,8.5,8.5,51,0.04,CLR,SKC,0.44,WeatherDisplay:10.37,2013-05-07 19:49:00,
2013-05-07 14:54:00,71.9,51.7,29.96,ENE,76,6.9,6.9,49,0.03,CLR,SKC,0.44,WeatherDisplay:10.37,2013-05-07 19:54:00,
2013-05-07 14:59:00,72.4,53.2,29.96,ESE,116,8.5,8.5,51,0.01,CLR,SKC,0.44,WeatherDisplay:10.37,2013-05-07 19:59:00,
2013-05-07 15:04:00,72.3,52.1,29.96,NE,51,6.9,6.9,49,0.01,CLR,SKC,0.44,WeatherDisplay:10.37,2013-05-07 20:04:00,
2013-05-07 15:09:00,72.3,52.1,29.95,SE,124,6.9,6.9,49,0.00,CLR,SKC,0.44,WeatherDisplay:10.37,2013-05-07 20:09:00,
2013-05-07 15:14:00,72.7,53.5,29.95,ENE,59,11.7,11.7,51,0.00,CLR,SKC,0.44,WeatherDisplay:10.37,2013-05-07 20:14:00,
2013-05-07 15:19:00,72.9,53.7,29.95,SE,130,5.8,5.8,51,0.00,CLR,SKC,0.44,WeatherDisplay:10.37,2013-05-07 20:19:00,
2013-05-07 15:24:00,72.9,52.6,29.95,ESE,121,9.2,9.2,49,0.00,CLR,SKC,0.44,WeatherDisplay:10.37,2013-05-07 20:24:00,
2013-05-07 15:29:00,72.3,53.7,29.94,NE,40,8.5,8.5,52,0.00,CLR,SKC,0.44,WeatherDisplay:10.37,2013-05-07 20:29:00,
2013-05-07 15:34:00,73.2,54.0,29.94,NNE,14,5.3,5.3,51,0.00,CLR,SKC,0.44,WeatherDisplay:10.37,2013-05-07 20:34:00,
2013-05-07 15:39:00,73.0,52.7,29.94,ESE,107,7.4,7.4,49,0.00,CLR,SKC,0.44,WeatherDisplay:10.37,2013-05-07 20:39:00,
2013-05-07 15:44:00,72.7,52.4,29.94,East,98,10.6,10.6,49,0.00,CLR,SKC,0.44,WeatherDisplay:10.37,2013-05-07 20:44:00,
2013-05-07 15:49:00,72.7,53.0,29.93,East,80,8.1,8.1,50,0.00,CLR,SKC,0.44,WeatherDisplay:10.37,2013-05-07 20:49:00,
2013-05-07 15:54:00,72.8,53.1,29.93,NE,46,6.9,6.9,50,0.00,CLR,SKC,0.44,WeatherDisplay:10.37,2013-05-07 20:54:00,
2013-05-07 15:59:00,72.9,53.2,29.93,NNE,31,9.5,9.5,50,0.00,CLR,SKC,0.44,WeatherDisplay:10.37,2013-05-07 20:59:00,
2013-05-07 16:04:00,73.4,53.6,29.93,East,98,8.5,8.5,50,0.00,CLR,SKC,0.44,WeatherDisplay:10.37,2013-05-07 21:04:00,
2013-05-07 16:09:00,73.3,53.0,29.93,East,86,6.9,6.9,49,0.00,CLR,SKC,0.44,WeatherDisplay:10.37,2013-05-07 21:09:00,
2013-05-07 16:14:00,73.1,52.8,29.93,ESE,115,9.2,9.2,49,0.00,CLR,SKC,0.44,WeatherDisplay:10.37,2013-05-07 21:14:00,
2013-05-07 16:19:00,72.6,52.9,29.93,NE,56,8.5,8.5,50,0.00,CLR,SKC,0.44,WeatherDisplay:10.37,2013-05-07 21:19:00,
2013-05-07 16:24:00,72.3,53.7,29.93,NE,56,6.9,6.9,52,0.00,CLR,SKC,0.44,WeatherDisplay:10.37,2013-05-07 21:24:00,
2013-05-07 16:29:00,72.1,53.0,29.92,ESE,107,4.6,4.6,51,0.00,CLR,SKC,0.44,WeatherDisplay:10.37,2013-05-07 21:29:00,
2013-05-07 16:34:00,72.9,54.8,29.92,East,91,9.5,9.5,53,0.00,CLR,SKC,0.44,WeatherDisplay:10.37,2013-05-07 21:34:00,
2013-05-07 16:39:00,73.9,54.1,29.92,ENE,59,10.4,10.4,50,0.00,CLR,SKC,0.44,WeatherDisplay:10.37,2013-05-07 21:39:00,
2013-05-07 16:44:00,73.6,53.3,29.92,ESE,108,5.8,5.8,49,0.00,CLR,SKC,0.44,WeatherDisplay:10.37,2013-05-07 21:44:00,
2013-05-07 16:49:00,73.4,53.6,29.92,ENE,74,7.4,7.4,50,0.00,CLR,SKC,0.44,WeatherDisplay:10.37,2013-05-07 21:49:00,
2013-05-07 16:54:00,73.5,54.3,29.92,ENE,75,9.5,9.5,51,0.00,CLR,SKC,0.44,WeatherDisplay:10.37,2013-05-07 21:54:00,
2013-05-07 16:59:00,73.2,54.0,29.92,ENE,59,7.4,7.4,51,0.00,CLR,SKC,0.44,WeatherDisplay:10.37,2013-05-07 21:59:00,
2013-05-07 17:04:00,73.3,53.5,29.92,ENE,62,12.7,12.7,50,0.00,CLR,SKC,0.44,WeatherDisplay:10.37,2013-05-07 22:04:00,
2013-05-07 17:09:00,72.9,53.2,29.91,ESE,102,7.4,7.4,50,0.00,CLR,SKC,0.44,WeatherDisplay:10.37,2013-05-07 22:09:00,
2013-05-07 17:14:00,72.8,53.1,29.91,East,94,6.9,6.9,50,0.00,CLR,SKC,0.44,WeatherDisplay:10.37,2013-05-07 22:14:00,
2013-05-07 17:19:00,73.0,53.3,29.91,ESE,103,12.7,12.7,50,0.00,CLR,SKC,0.44,WeatherDisplay:10.37,2013-05-07 22:19:00,
2013-05-07 17:24:00,73.1,53.4,29.91,ENE,76,6.4,6.4,50,0.00,CLR,SKC,0.44,WeatherDisplay:10.37,2013-05-07 22:24:00,
2013-05-07 17:29:00,73.0,52.7,29.91,East,94,7.4,7.4,49,0.00,CLR,SKC,0.44,WeatherDisplay:10.37,2013-05-07 22:29:00,
2013-05-07 17:34:00,72.9,52.6,29.91,East,98,6.9,6.9,49,0.00,CLR,SKC,0.44,WeatherDisplay:10.37,2013-05-07 22:34:00,
2013-05-07 17:39:00,72.8,53.1,29.91,ENE,72,8.1,8.1,50,0.00,CLR,SKC,0.44,WeatherDisplay:10.37,2013-05-07 22:39:00,
2013-05-07 17:44:00,72.7,53.5,29.91,East,91,5.8,5.8,51,0.00,CLR,SKC,0.44,WeatherDisplay:10.37,2013-05-07 22:44:00,
2013-05-07 17:49:00,72.6,53.4,29.91,SE,125,6.9,6.9,51,0.00,CLR,SKC,0.44,WeatherDisplay:10.37,2013-05-07 22:49:00,
2013-05-07 17:54:00,72.7,53.0,29.91,NE,41,4.6,4.6,50,0.00,CLR,SKC,0.44,WeatherDisplay:10.37,2013-05-07 22:54:00,
2013-05-07 17:59:00,73.0,53.3,29.91,East,84,7.4,7.4,50,0.00,CLR,SKC,0.44,WeatherDisplay:10.37,2013-05-07 22:59:00,
2013-05-07 18:04:00,73.1,53.4,29.90,ESE,113,4.6,4.6,50,0.00,CLR,SKC,0.44,WeatherDisplay:10.37,2013-05-07 23:04:00,
2013-05-07 18:09:00,73.3,53.0,29.90,SE,127,6.4,6.4,49,0.00,CLR,SKC,0.44,WeatherDisplay:10.37,2013-05-07 23:09:00,
2013-05-07 18:14:00,73.3,53.5,29.90,ESE,115,11.7,11.7,50,0.00,CLR,SKC,0.44,WeatherDisplay:10.37,2013-05-07 23:14:00,
2013-05-07 18:19:00,73.0,53.3,29.90,NE,53,6.9,6.9,50,0.00,CLR,SKC,0.44,WeatherDisplay:10.37,2013-05-07 23:19:00,
2013-05-07 18:24:00,72.6,52.3,29.90,ENE,58,6.9,6.9,49,0.00,CLR,SKC,0.44,WeatherDisplay:10.37,2013-05-07 23:24:00,
2013-05-07 18:29:00,72.7,52.4,29.90,ENE,72,8.1,8.1,49,0.00,CLR,SKC,0.44,WeatherDisplay:10.37,2013-05-07 23:29:00,
2013-05-07 18:34:00,72.5,52.2,29.90,ENE,61,6.9,6.9,49,0.00,CLR,SKC,0.44,WeatherDisplay:10.37,2013-05-07 23:34:00,
2013-05-07 18:39:00,72.2,52.0,29.90,NE,49,8.5,8.5,49,0.00,CLR,SKC,0.44,WeatherDisplay:10.37,2013-05-07 23:39:00,
2013-05-07 18:45:00,72.0,51.8,29.89,ENE,60,6.4,6.4,49,0.00,CLR,SKC,0.44,WeatherDisplay:10.37,2013-05-07 23:45:00,
2013-05-07 18:50:00,71.8,52.7,29.89,East,82,1.0,7.0,51,0.00,CLR,SKC,0.44,WeatherDisplay:10.37,2013-05-07 23:50:00,
2013-05-07 18:55:00,71.5,51.9,29.89,ENE,68,1.2,1.2,50,0.00,CLR,SKC,0.44,WeatherDisplay:10.37,2013-05-07 23:55:00,
2013-05-07 19:00:00,71.2,52.1,29.89,ENE,58,0.0,0.0,51,0.00,CLR,SKC,0.44,WeatherDisplay:10.37,2013-05-08 00:00:00,
2013-05-07 19:07:00,71.0,52.5,29.89,ENE,74,6.4,6.4,52,0.00,RA,SKC,0.44,WeatherDisplay:10.37,2013-05-08 00:07:00,
2013-05-07 19:12:00,70.8,52.8,29.89,ENE,70,1.2,1.2,53,0.00,RA,SKC,0.00,WeatherDisplay:10.37,2013-05-08 00:12:00,
2013-05-07 19:17:00,70.5,53.1,29.89,ESE,105,4.2,4.2,54,0.00,RA,SKC,0.00,WeatherDisplay:10.37,2013-05-08 00:17:00,
2013-05-07 19:22:00,70.3,52.9,29.89,NE,39,1.2,1.2,54,0.00,CLR,SKC,0.00,WeatherDisplay:10.37,2013-05-08 00:22:00,
2013-05-07 19:27:00,70.1,52.7,29.89,ENE,61,4.2,4.2,54,0.00,CLR,SKC,0.00,WeatherDisplay:10.37,2013-05-08 00:27:00,
2013-05-07 19:32:00,70.0,53.1,29.88,NE,37,5.8,5.8,55,0.00,CLR,SKC,0.00,WeatherDisplay:10.37,2013-05-08 00:32:00,
2013-05-07 19:37:00,69.4,53.5,29.88,NNE,20,4.6,4.6,57,0.00,CLR,SKC,0.00,WeatherDisplay:10.37,2013-05-08 00:37:00,
2013-05-07 19:42:00,69.4,53.5,29.89,NE,49,4.6,4.6,57,0.00,CLR,SKC,0.00,WeatherDisplay:10.37,2013-05-08 00:42:00,
2013-05-07 19:47:00,69.2,53.8,29.88,NNE,28,5.8,5.8,58,0.00,CLR,SKC,0.00,WeatherDisplay:10.37,2013-05-08 00:47:00,
2013-05-07 19:52:00,69.1,53.2,29.88,NNE,24,4.6,4.6,57,0.00,CLR,SKC,0.00,WeatherDisplay:10.37,2013-05-08 00:52:00,
2013-05-07 19:57:00,68.9,53.5,29.88,NE,34,5.8,5.8,58,0.00,CLR,SKC,0.00,WeatherDisplay:10.37,2013-05-08 00:57:00,
2013-05-07 20:02:00,68.8,53.4,29.89,NE,41,5.8,5.8,58,0.00,CLR,SKC,0.00,WeatherDisplay:10.37,2013-05-08 01:02:00,
2013-05-07 20:07:00,68.5,54.1,29.89,NE,37,3.5,3.5,60,0.00,CLR,SKC,0.00,WeatherDisplay:10.37,2013-05-08 01:07:00,
2013-05-07 20:12:00,68.0,54.0,29.89,NE,55,2.3,2.3,61,0.00,CLR,SKC,0.00,WeatherDisplay:10.37,2013-05-08 01:12:00,
2013-05-07 20:17:00,68.0,53.6,29.89,NE,56,2.3,2.3,60,0.00,CLR,SKC,0.00,WeatherDisplay:10.37,2013-05-08 01:17:00,
2013-05-07 20:22:00,67.8,53.9,29.89,NE,50,3.5,3.5,61,0.00,CLR,SKC,0.00,WeatherDisplay:10.37,2013-05-08 01:22:00,
2013-05-07 20:27:00,67.7,53.8,29.89,ENE,70,3.5,3.5,61,0.00,CLR,SKC,0.00,WeatherDisplay:10.37,2013-05-08 01:27:00,
2013-05-07 20:38:00,67.0,53.5,29.89,NE,38,4.6,4.6,62,0.00,CLR,SKC,0.00,WeatherDisplay:10.37,2013-05-08 01:38:00,
2013-05-07 20:43:00,66.7,53.7,29.90,ENE,68,5.3,5.3,63,0.00,CLR,SKC,0.00,WeatherDisplay:10.37,2013-05-08 01:43:00,
2013-05-07 20:48:00,66.7,53.7,29.90,NE,40,4.6,4.6,63,0.00,CLR,SKC,0.00,WeatherDisplay:10.37,2013-05-08 01:48:00,
2013-05-07 20:53:00,66.4,53.8,29.89,NE,39,5.8,5.8,64,0.00,CLR,SKC,0.00,WeatherDisplay:10.37,2013-05-08 01:53:00,
2013-05-07 20:58:00,66.6,53.6,29.90,NE,37,4.2,4.2,63,0.00,CLR,SKC,0.00,WeatherDisplay:10.37,2013-05-08 01:58:00,
2013-05-07 21:03:00,66.4,53.8,29.90,NNE,26,2.3,2.3,64,0.00,CLR,SKC,0.00,WeatherDisplay:10.37,2013-05-08 02:03:00,
2013-05-07 21:08:00,66.1,54.0,29.90,NE,41,3.5,3.5,65,0.00,CLR,SKC,0.00,WeatherDisplay:10.37,2013-05-08 02:08:00,
2013-05-07 21:13:00,66.0,53.9,29.90,NE,44,4.6,4.6,65,0.00,CLR,SKC,0.00,WeatherDisplay:10.37,2013-05-08 02:13:00,
2013-05-07 21:18:00,65.9,53.8,29.90,NNE,25,2.3,2.3,65,0.00,CLR,SKC,0.00,WeatherDisplay:10.37,2013-05-08 02:18:00,
2013-05-07 21:23:00,65.9,53.8,29.90,NE,37,3.2,3.2,65,0.00,CLR,SKC,0.00,WeatherDisplay:10.37,2013-05-08 02:23:00,
2013-05-07 21:28:00,66.0,53.9,29.90,NE,39,4.2,4.2,65,0.00,CLR,SKC,0.00,WeatherDisplay:10.37,2013-05-08 02:28:00,
2013-05-07 21:33:00,66.0,53.9,29.91,NE,34,4.6,4.6,65,0.00,CLR,SKC,0.00,WeatherDisplay:10.37,2013-05-08 02:33:00,
2013-05-07 21:38:00,65.9,53.8,29.91,East,84,3.5,3.5,65,0.00,CLR,SKC,0.00,WeatherDisplay:10.37,2013-05-08 02:38:00,
2013-05-07 21:43:00,65.9,53.8,29.91,NE,39,4.6,4.6,65,0.00,CLR,SKC,0.00,WeatherDisplay:10.37,2013-05-08 02:43:00,
2013-05-07 21:48:00,65.7,53.6,29.91,NNE,25,5.8,5.8,65,0.00,CLR,SKC,0.00,WeatherDisplay:10.37,2013-05-08 02:48:00,
2013-05-07 21:53:00,65.3,53.2,29.90,North,11,4.6,4.6,65,0.00,CLR,SKC,0.00,WeatherDisplay:10.37,2013-05-08 02:53:00,
2013-05-07 21:58:00,64.8,53.2,29.91,North,11,4.6,4.6,66,0.00,CLR,SKC,0.00,WeatherDisplay:10.37,2013-05-08 02:58:00,
2013-05-07 22:03:00,64.3,53.1,29.91,NNE,25,2.3,2.3,67,0.00,CLR,SKC,0.00,WeatherDisplay:10.37,2013-05-08 03:03:00,
2013-05-07 22:08:00,63.7,53.3,29.91,NNE,16,1.2,1.2,69,0.00,CLR,SKC,0.00,WeatherDisplay:10.37,2013-05-08 03:08:00,
2013-05-07 22:13:00,63.4,53.0,29.91,NNE,24,0.0,0.0,69,0.00,CLR,SKC,0.00,WeatherDisplay:10.37,2013-05-08 03:13:00,
2013-05-07 22:18:00,63.4,53.0,29.91,NE,39,0.0,0.0,69,0.00,CLR,SKC,0.00,WeatherDisplay:10.37,2013-05-08 03:18:00,
2013-05-07 22:23:00,63.3,53.0,29.91,NNE,32,3.5,3.5,69,0.00,CLR,SKC,0.00,WeatherDisplay:10.37,2013-05-08 03:23:00,
2013-05-07 22:28:00,63.2,53.3,29.91,NE,34,4.6,4.6,70,0.00,CLR,SKC,0.00,WeatherDisplay:10.37,2013-05-08 03:28:00,
2013-05-07 22:33:00,63.4,53.0,29.91,NE,37,5.8,5.8,69,0.00,CLR,SKC,0.00,WeatherDisplay:10.37,2013-05-08 03:33:00,
2013-05-07 22:38:00,63.6,53.2,29.91,NE,41,5.8,5.8,69,0.00,CLR,SKC,0.00,WeatherDisplay:10.37,2013-05-08 03:38:00,
2013-05-07 22:43:00,63.5,53.1,29.91,NE,39,5.8,5.8,69,0.00,CLR,SKC,0.00,WeatherDisplay:10.37,2013-05-08 03:43:00,
2013-05-07 22:48:00,63.6,53.2,29.91,NE,50,5.8,5.8,69,0.00,CLR,SKC,0.00,WeatherDisplay:10.37,2013-05-08 03:48:00,
2013-05-07 22:53:00,63.7,52.9,29.91,NNE,33,5.8,5.8,68,0.00,CLR,SKC,0.00,WeatherDisplay:10.37,2013-05-08 03:53:00,
2013-05-07 22:58:00,63.7,52.9,29.90,NNE,31,6.9,6.9,68,0.00,CLR,SKC,0.00,WeatherDisplay:10.37,2013-05-08 03:58:00,
2013-05-07 23:01:00,63.6,52.8,29.90,NE,41,5.8,5.8,68,0.00,CLR,SKC,0.00,WeatherDisplay:10.37,2013-05-08 04:01:00,
2013-05-07 23:06:00,63.7,52.9,29.90,ENE,60,6.9,6.9,68,0.00,CLR,SKC,0.00,WeatherDisplay:10.37,2013-05-08 04:06:00,
2013-05-07 23:11:00,63.8,53.0,29.90,NE,47,6.9,6.9,68,0.00,CLR,SKC,0.00,WeatherDisplay:10.37,2013-05-08 04:11:00,
2013-05-07 23:16:00,63.8,52.6,29.90,ENE,59,6.9,6.9,67,0.00,CLR,SKC,0.00,WeatherDisplay:10.37,2013-05-08 04:16:00,
2013-05-07 23:21:00,63.9,52.7,29.90,ENE,66,5.8,5.8,67,0.00,CLR,SKC,0.00,WeatherDisplay:10.37,2013-05-08 04:21:00,
2013-05-07 23:26:00,63.9,52.7,29.90,NE,40,5.8,5.8,67,0.00,CLR,SKC,0.00,WeatherDisplay:10.37,2013-05-08 04:26:00,
2013-05-07 23:31:00,63.9,52.7,29.90,ENE,60,3.5,3.5,67,0.00,CLR,SKC,0.00,WeatherDisplay:10.37,2013-05-08 04:31:00,
2013-05-07 23:36:00,63.7,52.9,29.90,NE,54,4.6,4.6,68,0.00,CLR,SKC,0.00,WeatherDisplay:10.37,2013-05-08 04:36:00,
2013-05-07 23:41:00,63.4,52.7,29.91,SE,133,3.5,3.5,68,0.00,CLR,SKC,0.00,WeatherDisplay:10.37,2013-05-08 04:41:00,
2013-05-07 23:46:00,63.2,52.9,29.91,East,81,4.2,4.2,69,0.00,CLR,SKC,0.00,WeatherDisplay:10.37,2013-05-08 04:46:00,
2013-05-07 23:51:00,63.0,52.7,29.91,ENE,57,1.2,0.0,69,0.00,CLR,SKC,0.00,WeatherDisplay:10.37,2013-05-08 04:51:00,
2013-05-07 23:56:00,63.0,52.7,29.91,ENE,59,4.6,4.6,69,0.00,CLR,SKC,0.00,WeatherDisplay:10.37,2013-05-08 04:56:00,